Regional Weather Roundup
Issued by NWS

Home | Current Version | Previous Version | Text Only | Print | Product List | Glossary Off
Versions: 1 2 3 4 5 6 7 8 9 10 11 12 13 14 15 16 17 18 19 20 21 22 23 24 25 26 27

000
ASUS45 KBOU 200706
RWRCO

WEATHER ROUNDUP FOR COLORADO
NATIONAL WEATHER SERVICE DENVER/BOULDER CO
100 AM MDT SUN APR 20 2014

NOTE: "FAIR" INDICATES FEW OR NO CLOUDS BELOW 12000 FEET WITH NO
SIGNIFICANT WEATHER AND/OR OBSTRUCTIONS TO VISIBILITY.

COZ001>005-013-030-031-200800-
...NORTHWEST COLORADO...

CITY           SKY/WX    TMP DP  RH WIND       PRES   REMARKS
CRAIG          CLEAR     37  33  85 NE3       30.13R
HAYDEN         CLEAR     43  36  75 E8        30.16S
MEEKER         CLEAR     42  37  82 NE5       30.14S
MOUNT WERNER   MOCLDY    37  32  81 S9        30.29S
STEAMBOAT SPGS CLOUDY    42  32  68 CALM      30.15S
WALDEN         CLEAR     32  30  93 E6        30.19R WCI  26
$$

COZ006>008-011-200800-
...WEST CENTRAL VALLEYS...

CITY           SKY/WX    TMP DP  RH WIND       PRES   REMARKS
GRAND JUNCTION CLEAR     49  42  77 E7        30.08R
MONTROSE       PTCLDY    46  41  82 SE10      30.13S
EAGLE          MOCLDY    46  43  87 CALM      30.17S
RIFLE          CLEAR     45  36  70 SE3       30.11S
DELTA          PTCLDY    48  39  70 NE7       30.10S
NUCLA            N/A     45  37  76 E7        30.16R
$$

COZ017>023-064>068-200800-
...SOUTHWEST COLORADO...

CITY           SKY/WX    TMP DP  RH WIND       PRES   REMARKS
DURANGO        CLOUDY    45  35  68 SW3       30.12S
CORTEZ         CLEAR     41  33  73 E6        30.11S
PAGOSA SPRINGS CLOUDY    39  34  82 CALM      30.17R
TELLURIDE      CLOUDY    39  34  81 CALM      30.22S
WOLF CREEK PAS CLOUDY    30  27  86 SW8       30.32S WCI  23
$$

COZ009-010-012-014-032>034-037-058>063-200800-
...CENTRAL COLORADO...

CITY           SKY/WX    TMP DP  RH WIND       PRES   REMARKS
ASPEN          CLOUDY    41  34  76 CALM      30.18R
BUENA VISTA    CLOUDY    44  39  82 CALM      30.20R
COPPER MTN     CLOUDY    34  30  86 W12       30.33S WCI  25
BERTHOUD PASS  HAZE      27  18  69 NW12      30.35S VSB 1   WCI  16
COTTONWOOD PAS CLOUDY    41  36  81 CALM      30.26S
GUNNISON       MOCLDY    41  30  65 N7        30.21S
KREMMLING      CLOUDY    41  36  81 CALM      30.20R
LEADVILLE      CLOUDY    32  31  96 NE3       30.24F
MONARCH PASS   MOCLDY    30  30 100 N5        30.42F WCI  25
SALIDA         CLOUDY    47  42  83 CALM      30.26S
SUNLIGHT       PTCLDY    36  32  87 CALM      30.30F
WILKERSON PASS SNOW      32  32 100 SW5       30.32F VSB 1/4 WCI  27
$$

COZ069>075-200800-
...SAN LUIS VALLEY/SANGRE DE CRISTO MOUNTAINS...

CITY           SKY/WX    TMP DP  RH WIND       PRES   REMARKS
ALAMOSA        MOCLDY    45  36  70 NE10      30.13R
LA VETA PASS   DRIZZLE   36  34  93 SE7       30.25S
SAGUACHE       CLOUDY    46  34  61 NW13      30.17S
$$

COZ035-036-038>040-200800-
...NORTHERN COLORADO FRONT RANGE...

CITY           SKY/WX    TMP DP  RH WIND       PRES   REMARKS
DENVER INTL AP MOCLDY    50  45  83 SW16      30.09F
DMNS CITY PARK   N/A     53  43  68 S12G20    30.08F
AURORA         MOCLDY    50  45  81 SW12      30.10F
FRONT RANGE AP NOT AVBL
ERIE MUNI ARPT MOCLDY    49  46  88 CALM      30.07F
BOULDER MUN AP MOCLDY    52  43  71 SW9       30.07F
CENTENNIAL     CLOUDY    50  41  71 SW14      30.12S
BROOMFIELD     MOCLDY    50  45  81 S5        30.10S
FORT COLLINS   MOCLDY    50  41  71 SW9       30.07F
LONGMONT       CLOUDY    50  46  84 SW3       30.09S
$$

COZ041-046-047-076>085-087-088-200800-
...PIKES PEAK/PALMER DIVIDE AND SOUTHERN FOOTHILLS...

CITY           SKY/WX    TMP DP  RH WIND       PRES   REMARKS
COLO. SPRINGS  MOCLDY    50  40  68 NW12      30.12S
A. F. ACADEMY  MOCLDY    44  42  94 N7        30.14S
ELLICOTT       NOT AVBL
FALCON         MOCLDY    46  40  78 NW9       30.15S
FORT CARSON    MOCLDY    48  42  80 NW8       30.09S
LIMON          MOCLDY    42  37  82 NW5       30.09R
MONUMENT HILL  CLOUDY    41  37  87 W8        30.15S
TRINIDAD       LGT RAIN  53  43  68 NW9       30.08R
$$

COZ042>045-048>051-090-091-200800-
...NORTHEAST COLORADO...

CITY           SKY/WX    TMP DP  RH WIND       PRES   REMARKS
GREELEY ARPT   MOCLDY    52  45  76 NW5       30.06S
AKRON          PTCLDY    44  38  79 W7        30.06S
BURLINGTON     MOCLDY    47  43  86 NE8       30.02S
WRAY           PTCLDY    46  42  88 NW8       30.02S
STERLING       PTCLDY    43  37  81 W3        30.04F
HOLYOKE        PTCLDY    45  37  76 NW5       30.04S
FORT MORGAN    PTCLDY    48  37  65 CALM      30.07S
$$

COZ086-089-092>099-200800-
...SOUTHEAST COLORADO...

CITY           SKY/WX    TMP DP  RH WIND       PRES   REMARKS
PUEBLO         MOCLDY    57  41  55 N13       30.04S
LA JUNTA       CLOUDY    57  45  64 N15       29.97R
LAMAR          CLOUDY    59  42  53 S18       29.92F
SPRINGFIELD      N/A     54  45  71 S14       30.00F
$$



USA.gov is the U.S. government's official web portal to all federal, state and local government web resources and services.